EW3012 Weather Reports


Display with metric or nautical units.
time (UTC)temp
F
wind
direction
speed
MPH
gust
MPH
rain 1hr
in
rain 24hr
in
rain mn
in
humidity
%
barometer
mb
20190120042131 29 260 0.0 3.0 0.00 0.00 0.00 93 1022.0
20190120041633 29 285 1.0 4.0 0.00 0.00 0.00 93 1022.0
20190120041103 29 283 1.0 4.0 0.00 0.00 0.00 93 1022.2
20190120040611 29 293 1.0 3.0 0.00 0.00 0.00 92 1022.2
20190120040029 29 266 2.0 4.0 0.00 0.00 0.00 92 1022.3
20190120035548 29 300 2.0 4.0 0.00 0.00 0.00 92 1022.3
20190120035102 29 273 2.0 4.0 0.00 0.00 0.00 92 1022.2
20190120034610 29 253 1.0 4.0 0.00 0.00 0.00 92 1022.2
20190120034031 29 217 1.0 4.0 0.00 0.00 0.00 92 1022.3
20190120033533 29 276 1.0 4.0 0.00 0.00 0.00 92 1022.3
20190120032953 29 224 1.0 4.0 0.00 0.00 0.00 92 1022.3
20190120032506 29 276 1.0 4.0 0.00 0.00 0.00 92 1022.3
20190120031927 29 274 0.0 0.0 0.00 0.00 0.00 92 1022.4
20190120031433 29 250 0.0 0.0 0.00 0.00 0.00 91 1022.4
20190120030858 29 272 0.0 2.0 0.00 0.00 0.00 91 1022.4
20190120030412 29 283 1.0 2.0 0.00 0.00 0.00 91 1022.5
20190120025830 29 271 0.0 2.0 0.00 0.00 0.00 91 1022.6
20190120025344 29 250 0.0 2.0 0.00 0.00 0.00 91 1022.6
20190120024806 29 274 0.0 2.0 0.00 0.00 0.00 90 1022.8
20190120024325 29 252 0.0 2.0 0.00 0.00 0.00 90 1022.9
20190120023746 29 262 0.0 0.0 0.00 0.00 0.00 90 1023.0
20190120023148 29 270 0.0 0.0 0.00 0.00 0.00 90 1023.0
20190120022611 29 269 0.0 0.0 0.00 0.00 0.00 89 1023.0
20190120022013 29 270 0.0 0.0 0.00 0.00 0.00 89 1023.1
20190120021345 29 269 0.0 0.0 0.00 0.00 0.00 89 1023.0
20190120020731 29 269 0.0 0.0 0.00 0.00 0.00 89 1023.1
20190120020221 29 269 0.0 0.0 0.00 0.00 0.00 89 1023.1
20190120015711 29 269 0.0 0.0 0.00 0.00 0.00 88 1023.1
20190120015201 29 270 0.0 0.0 0.00 0.00 0.00 88 1023.1
20190120014647 29 269 0.0 0.0 0.00 0.00 0.00 88 1023.1
20190120014137 29 270 0.0 0.0 0.00 0.00 0.00 87 1023.2
20190120013628 29 276 0.0 0.0 0.00 0.00 0.00 87 1023.2
20190120013117 29 276 0.0 0.0 0.00 0.00 0.00 86 1023.2
20190120012607 29 276 0.0 0.0 0.00 0.00 0.00 86 1023.3
20190120012057 29 264 0.0 0.0 0.00 0.00 0.00 85 1023.4
20190120011548 29 259 0.0 1.0 0.00 0.00 0.00 85 1023.6
20190120011038 30 262 0.0 1.0 0.00 0.00 0.00 84 1023.6
20190120010527 30 274 0.0 0.0 0.00 0.00 0.00 84 1023.6
20190120010017 30 274 0.0 0.0 0.00 0.00 0.00 84 1023.6
20190120005508 30 274 0.0 0.0 0.00 0.00 0.00 83 1023.7
20190120005001 30 274 0.0 0.0 0.00 0.00 0.00 83 1023.7
20190120004500 30 274 0.0 0.0 0.00 0.00 0.00 83 1023.6
20190120003950 30 274 0.0 0.0 0.00 0.00 0.00 83 1023.7
20190120003440 30 131 0.0 0.0 0.00 0.00 0.00 83 1023.8
20190120002929 30 131 0.0 0.0 0.00 0.00 0.00 83 1023.7
20190120002422 30 131 0.0 0.0 0.00 0.00 0.00 83 1023.7
20190120001915 30 131 0.0 0.0 0.00 0.00 0.00 82 1023.7
20190120001413 30 131 0.0 0.0 0.00 0.00 0.00 82 1023.7
20190120000902 30 225 0.0 0.0 0.00 0.00 0.00 83 1023.6
20190120000346 30 238 0.0 3.0 0.00 0.00 0.00 83 1023.7
20190119235838 30 238 0.0 3.0 0.00 0.00 0.00 83 1023.7
20190119235329 30 227 0.0 0.0 0.00 0.00 0.00 83 1023.8
20190119234830 30 255 0.0 0.0 0.00 0.00 0.00 84 1023.8
20190119234322 30 257 0.0 0.0 0.00 0.00 0.00 84 1023.9
20190119233812 30 250 0.0 0.0 0.00 0.00 0.00 83 1023.9
20190119233304 30 257 0.0 0.0 0.00 0.00 0.00 83 1023.9
20190119232756 30 246 0.0 0.0 0.00 0.00 0.00 84 1024.0
20190119232247 30 260 0.0 3.0 0.00 0.00 0.00 85 1024.1
20190119231737 30 255 0.0 3.0 0.00 0.00 0.00 85 1024.2
20190119231230 29 243 0.0 2.0 0.00 0.00 0.00 86 1024.3
20190119230720 29 256 0.0 0.0 0.00 0.00 0.00 86 1024.3
20190119230214 29 283 0.0 1.0 0.00 0.00 0.00 87 1024.5
20190119225708 29 253 0.0 3.0 0.00 0.00 0.00 87 1024.6
20190119225200 29 229 1.0 3.0 0.00 0.00 0.00 87 1024.6
20190119224652 29 232 1.0 3.0 0.00 0.00 0.00 88 1024.6
20190119224149 29 266 1.0 3.0 0.00 0.00 0.00 88 1024.8
20190119223642 29 283 1.0 4.0 0.00 0.00 0.00 88 1024.7
20190119223141 29 248 1.0 4.0 0.00 0.00 0.00 88 1024.8
20190119222636 29 295 0.0 3.0 0.00 0.00 0.00 88 1024.8
20190119222128 29 243 0.0 0.0 0.00 0.00 0.00 88 1024.9
20190119221626 29 256 0.0 0.0 0.00 0.00 0.00 87 1025.0
20190119221120 29 138 0.0 0.0 0.00 0.00 0.00 87 1025.0
20190119220615 29 152 0.0 0.0 0.00 0.00 0.00 86 1025.1
20190119220113 29 107 0.0 0.0 0.00 0.00 0.00 86 1025.2
20190119215609 29 276 0.0 0.0 0.00 0.00 0.00 86 1025.3
20190119215102 29 87 0.0 0.0 0.00 0.00 0.00 86 1025.5
20190119214556 29 248 0.0 3.0 0.00 0.00 0.00 86 1025.5
20190119214054 29 250 0.0 3.0 0.00 0.00 0.00 86 1025.3
20190119213556 29 274 0.0 3.0 0.00 0.00 0.00 86 1025.3
20190119213049 29 208 0.0 3.0 0.00 0.00 0.00 86 1025.3
20190119212532 29 269 0.0 4.0 0.00 0.00 0.00 86 1025.6
20190119212014 29 338 0.0 4.0 0.00 0.00 0.00 86 1025.6
20190119211507 29 259 0.0 0.0 0.00 0.00 0.00 85 1025.5
20190119211007 29 45 1.0 3.0 0.00 0.00 0.00 85 1025.5
20190119210457 29 64 1.0 4.0 0.00 0.00 0.00 84 1025.3
20190119205948 30 72 0.0 4.0 0.00 0.00 0.00 84 1025.3
20190119205437 30 319 0.0 0.0 0.00 0.00 0.00 83 1025.3
20190119204927 30 319 0.0 0.0 0.00 0.00 0.00 82 1025.5
20190119204417 30 318 0.0 0.0 0.00 0.00 0.00 81 1025.5
20190119203908 30 328 0.0 0.0 0.00 0.00 0.00 81 1025.5
20190119203410 30 259 1.0 4.0 0.00 0.00 0.00 80 1025.5
20190119202349 30 152 0.0 3.0 0.00 0.00 0.00 80 1025.5
20190119201841 30 276 1.0 4.0 0.00 0.00 0.00 80 1025.3
20190119201329 30 283 0.0 4.0 0.00 0.00 0.00 80 1025.3
20190119200815 30 302 0.0 0.0 0.00 0.00 0.00 80 1025.3
20190119200306 31 207 0.0 0.0 0.00 0.00 0.00 80 1025.2
20190119195756 31 150 1.0 5.0 0.00 0.00 0.00 80 1025.3
20190119195246 31 251 1.0 5.0 0.00 0.00 0.00 80 1025.5
20190119194736 30 318 1.0 3.0 0.00 0.00 0.00 81 1025.3
20190119194225 30 253 0.0 3.0 0.00 0.00 0.00 83 1025.5
20190119193715 30 285 0.0 1.0 0.00 0.00 0.00 86 1025.3
20190119193203 30 245 0.0 1.0 0.00 0.00 0.00 87 1025.2
20190119192653 30 69 0.0 0.0 0.00 0.00 0.00 88 1025.2
20190119192143 30 69 0.0 0.0 0.00 0.00 0.00 88 1025.2
20190119191633 30 70 0.0 0.0 0.00 0.00 0.00 88 1025.2
20190119191117 30 77 0.0 0.0 0.00 0.00 0.00 88 1025.2
20190119190609 30 77 0.0 0.0 0.00 0.00 0.00 88 1025.2
20190119190103 30 77 0.0 0.0 0.00 0.00 0.00 88 1025.2
20190119185553 30 77 0.0 0.0 0.00 0.00 0.00 88 1025.1
20190119185041 30 77 0.0 0.0 0.00 0.00 0.00 88 1025.1
20190119184532 30 76 0.0 0.0 0.00 0.00 0.00 88 1025.2
20190119184023 30 77 0.0 0.0 0.00 0.00 0.00 88 1025.1
20190119183516 30 77 0.0 0.0 0.00 0.00 0.00 88 1025.1
20190119183009 30 77 0.0 0.0 0.00 0.00 0.00 88 1025.0
20190119182500 30 77 0.0 0.0 0.00 0.00 0.00 88 1024.9
20190119181951 30 76 0.0 0.0 0.00 0.00 0.00 88 1025.0
20190119181443 30 77 0.0 0.0 0.00 0.00 0.00 88 1025.0
20190119180935 30 77 0.0 0.0 0.00 0.00 0.00 88 1025.0
20190119180430 30 77 0.0 0.0 0.00 0.00 0.00 87 1025.0
20190119175918 31 77 0.0 0.0 0.00 0.00 0.00 87 1025.0
20190119175409 31 77 0.0 0.0 0.00 0.00 0.00 87 1025.1
20190119174859 31 78 0.0 0.0 0.00 0.00 0.00 87 1025.1
20190119174342 31 76 0.0 0.0 0.00 0.00 0.00 87 1025.2
20190119173842 31 77 0.0 0.0 0.00 0.00 0.00 87 1025.2
20190119173326 31 77 0.0 0.0 0.00 0.00 0.00 87 1025.1
20190119172821 31 76 0.0 0.0 0.00 0.00 0.00 87 1025.1
20190119172311 31 77 0.0 0.0 0.00 0.00 0.00 89 1025.1
20190119171806 31 78 0.0 0.0 0.00 0.00 0.00 90 1025.1
20190119171302 31 78 0.0 0.0 0.00 0.00 0.00 90 1025.2
20190119170756 31 78 0.0 0.0 0.00 0.00 0.00 90 1025.1
20190119170247 31 77 0.0 0.0 0.00 0.00 0.00 90 1025.1
20190119165741 31 78 0.0 0.0 0.00 0.00 0.00 89 1025.0
20190119165241 31 78 0.0 0.0 0.00 0.00 0.00 89 1024.9
20190119164735 31 78 0.0 0.0 0.00 0.00 0.00 89 1025.0
20190119164228 31 78 0.0 0.0 0.00 0.00 0.00 89 1024.9
20190119163720 31 78 0.0 0.0 0.00 0.00 0.00 88 1024.9
20190119163214 31 78 0.0 0.0 0.00 0.00 0.00 88 1024.9
20190119162212 31 77 0.0 0.0 0.00 0.00 0.00 88 1024.8
20190119161708 31 78 0.0 0.0 0.00 0.00 0.00 88 1024.8
20190119161202 31 78 0.0 0.0 0.00 0.00 0.00 87 1024.8
20190119160700 32 78 0.0 0.0 0.00 0.00 0.00 87 1024.8
20190119160157 32 78 0.0 0.0 0.00 0.00 0.00 87 1024.8
20190119155649 32 77 0.0 0.0 0.00 0.00 0.00 87 1024.8
20190119155146 32 78 0.0 0.0 0.00 0.00 0.00 87 1024.8
20190119154643 31 78 0.0 0.0 0.00 0.00 0.00 87 1024.8
20190119154139 31 77 0.0 0.0 0.00 0.00 0.00 87 1024.9
20190119153636 31 78 0.0 0.0 0.00 0.00 0.00 87 1024.9
20190119153132 32 78 0.0 0.0 0.00 0.00 0.00 86 1024.9
20190119152630 32 77 0.0 0.0 0.00 0.00 0.00 86 1024.8
20190119152129 32 78 0.0 0.0 0.00 0.00 0.00 86 1024.8
20190119151619 32 78 0.0 0.0 0.00 0.00 0.00 85 1024.7
20190119151114 32 77 0.0 0.0 0.00 0.00 0.00 85 1024.6
20190119150610 32 78 0.0 0.0 0.00 0.00 0.00 85 1024.7
20190119150108 32 77 0.0 0.0 0.00 0.00 0.00 85 1024.7
20190119145602 32 78 0.0 0.0 0.00 0.00 0.00 85 1024.7
20190119145101 33 78 0.0 0.0 0.00 0.00 0.00 85 1024.7
20190119144555 33 77 0.0 0.0 0.00 0.00 0.00 85 1024.7
20190119144049 33 78 0.0 0.0 0.00 0.00 0.00 85 1024.7
20190119143539 33 77 0.0 0.0 0.00 0.00 0.00 85 1024.7
20190119143529 33 77 0.0 0.0 0.00 0.00 0.00 85 1024.6
20190119143330 33 77 0.0 0.0 0.00 0.00 0.00 85 1024.7
20190119142032 33 110 0.0 0.0 0.00 0.00 0.00 86 1024.6
20190119142018 33 77 0.0 0.0 0.00 0.00 0.00 85 1024.7
20190119141016 33 109 0.0 0.0 0.00 0.00 0.00 86 1024.7
20190119140502 33 110 0.0 0.0 0.00 0.00 0.00 86 1024.7
20190119135954 33 110 0.0 0.0 0.00 0.00 0.00 87 1024.7
20190119135502 33 110 0.0 0.0 0.00 0.00 0.00 88 1024.7
20190119134952 33 108 0.0 0.0 0.00 0.00 0.00 88 1024.7
20190119134435 33 139 0.0 0.0 0.00 0.00 0.00 89 1024.7
20190119133948 33 139 0.0 0.0 0.00 0.00 0.00 89 1024.8
20190119133451 33 139 0.0 0.0 0.00 0.00 0.00 90 1024.8
20190119132933 33 140 0.0 0.0 0.00 0.00 0.00 90 1024.7
20190119132426 33 139 0.0 0.0 0.00 0.00 0.00 90 1024.7
20190119132336 33 139 0.0 0.0 0.00 0.00 0.00 90 1024.7
20190119131329 33 113 0.0 0.0 0.00 0.00 0.00 90 1024.7
20190119130751 33 113 0.0 1.0 0.00 0.00 0.00 90 1024.7
20190119130310 33 138 0.0 1.0 0.00 0.00 0.00 90 1024.7
20190119125747 33 131 0.0 0.0 0.00 0.00 0.00 90 1024.7
20190119125041 33 137 0.0 0.0 0.00 0.00 0.00 90 1024.7
20190119124525 33 114 0.0 0.0 0.00 0.00 0.00 90 1024.6
20190119124022 33 114 0.0 0.0 0.00 0.00 0.00 90 1024.6
20190119123537 33 91 0.0 1.0 0.00 0.00 0.00 90 1024.5
20190119123023 33 131 0.0 1.0 0.00 0.00 0.00 90 1024.4
20190119122920 33 117 0.0 0.0 0.00 0.00 0.00 91 1024.5
20190119122558 33 131 0.0 0.0 0.00 0.00 0.00 90 1024.4
20190119121755 33 117 0.0 0.0 0.00 0.00 0.00 91 1024.5
20190119120803 33 134 0.0 2.0 0.00 0.00 0.00 91 1024.6
20190119120310 33 111 0.0 0.0 0.00 0.00 0.00 91 1024.5
20190119120238 33 88 0.0 2.0 0.00 0.00 0.00 91 1024.5
20190119120015 32 111 0.0 3.0 0.00 0.00 0.00 91 1024.5
20190119115221 32 152 1.0 3.0 0.00 0.00 0.00 91 1024.4
20190119114839 32 107 0.0 3.0 0.00 0.00 0.00 91 1024.4
20190119114210 32 134 0.0 3.0 0.00 0.00 0.00 91 1024.4
20190119113206 32 121 0.0 1.0 0.00 0.00 0.00 92 1024.4
20190119113149 32 105 0.0 2.0 0.00 0.00 0.00 91 1024.4
20190119112922 33 141 0.0 3.0 0.00 0.00 0.00 92 1024.4
20190119111626 33 149 0.0 3.0 0.00 0.00 0.00 92 1024.4
20190119111141 33 152 0.0 0.0 0.00 0.00 0.00 92 1024.4
20190119111117 33 208 0.0 0.0 0.00 0.00 0.00 92 1024.4
20190119110118 33 152 0.0 0.0 0.00 0.00 0.00 92 1024.5
20190119105454 33 153 0.0 0.0 0.00 0.00 0.00 92 1024.4
20190119104944 33 152 0.0 0.0 0.00 0.00 0.00 92 1024.4
20190119104444 33 152 0.0 0.0 0.00 0.00 0.00 92 1024.4
20190119103935 33 153 0.0 0.0 0.00 0.00 0.00 92 1024.4
20190119103423 33 152 0.0 0.0 0.00 0.00 0.00 92 1024.4
20190119103403 33 163 0.0 0.0 0.00 0.00 0.00 92 1024.4
20190119102403 33 169 0.0 0.0 0.00 0.00 0.00 92 1024.4
20190119101852 33 170 0.0 0.0 0.00 0.00 0.00 92 1024.3
20190119101342 33 170 0.0 0.0 0.00 0.00 0.00 92 1024.3
20190119100832 33 170 0.0 0.0 0.00 0.00 0.00 92 1024.3
20190119100322 32 169 0.0 0.0 0.00 0.00 0.00 92 1024.3
20190119095823 32 169 0.0 0.0 0.00 0.00 0.00 92 1024.3
20190119095814 32 169 0.0 0.0 0.00 0.00 0.00 92 1024.3
20190119095458 32 169 0.0 0.0 0.00 0.00 0.00 92 1024.2
20190119094811 32 169 0.0 0.0 0.00 0.00 0.00 92 1024.3
20190119094803 32 169 0.0 0.0 0.00 0.00 0.00 92 1024.3
20190119093222 32 169 0.0 0.0 0.00 0.00 0.00 92 1024.3
20190119092803 32 169 0.0 0.0 0.00 0.00 0.00 92 1024.2
20190119092203 32 170 0.0 2.0 0.00 0.00 0.00 92 1024.1
20190119091654 32 169 0.0 2.0 0.00 0.00 0.00 92 1024.0
20190119091142 32 108 0.0 0.0 0.00 0.00 0.00 92 1023.9
20190119090632 32 128 0.0 0.0 0.00 0.00 0.00 92 1023.9
20190119090123 32 49 0.0 0.0 0.00 0.00 0.00 92 1024.0
20190119085612 32 146 0.0 0.0 0.00 0.00 0.00 92 1023.9
20190119085102 32 139 0.0 1.0 0.00 0.00 0.00 92 1023.8
20190119084552 32 63 0.0 1.0 0.00 0.00 0.00 92 1023.6
20190119084042 32 82 0.0 2.0 0.00 0.00 0.00 92 1023.6
20190119083532 32 46 0.0 2.0 0.00 0.00 0.00 92 1023.5
20190119083022 32 77 0.0 1.0 0.00 0.00 0.00 92 1023.4
20190119082512 32 79 0.0 1.0 0.00 0.00 0.00 92 1023.4
20190119082000 32 75 0.0 1.0 0.00 0.00 0.00 92 1023.3
20190119081445 32 120 0.0 2.0 0.00 0.00 0.00 91 1023.2
20190119080933 32 135 0.0 2.0 0.00 0.00 0.00 91 1023.1
20190119080425 32 79 0.0 2.0 0.00 0.00 0.00 91 1023.1
20190119075912 32 98 0.0 1.0 0.00 0.00 0.00 91 1023.0
20190119075405 32 135 0.0 3.0 0.00 0.00 0.00 91 1022.9
20190119074852 32 88 0.0 3.0 0.00 0.00 0.00 91 1022.8
20190119074347 32 92 0.0 0.0 0.00 0.00 0.00 91 1022.6
20190119073832 32 68 0.0 0.0 0.00 0.00 0.00 91 1022.5
20190119073325 32 68 0.0 0.0 0.00 0.00 0.00 90 1022.4
20190119072809 32 79 0.0 0.0 0.00 0.00 0.00 90 1022.3
20190119072302 32 98 0.0 0.0 0.00 0.00 0.00 90 1022.3
20190119071749 32 50 0.0 0.0 0.00 0.00 0.00 90 1022.2
20190119071252 32 50 0.0 0.0 0.00 0.00 0.00 90 1022.1
20190119070740 32 49 0.0 0.0 0.00 0.00 0.00 90 1022.1
20190119070233 32 65 0.0 0.0 0.00 0.00 0.00 90 1022.1
20190119065718 32 100 1.0 3.0 0.00 0.00 0.00 90 1022.0
20190119065210 32 61 1.0 3.0 0.00 0.00 0.00 90 1021.9
20190119064657 32 45 0.0 3.0 0.00 0.00 0.00 90 1021.8
20190119064206 32 49 0.0 0.0 0.00 0.00 0.00 90 1021.7
20190119063649 32 49 0.0 0.0 0.00 0.00 0.00 90 1021.6
20190119063141 32 49 0.0 0.0 0.00 0.00 0.00 90 1021.5
20190119062629 32 49 0.0 0.0 0.00 0.00 0.00 90 1021.5
20190119062121 32 49 0.0 0.0 0.00 0.00 0.00 90 1021.5
20190119061608 32 49 0.0 0.0 0.00 0.00 0.00 90 1021.4
20190119061100 32 49 0.0 0.0 0.00 0.00 0.00 90 1021.3
20190119060548 32 49 0.0 0.0 0.00 0.00 0.00 90 1021.2
20190119060041 32 49 0.0 0.0 0.00 0.00 0.00 90 1021.1
20190119055526 32 49 0.0 0.0 0.00 0.00 0.00 90 1021.1
20190119055018 32 61 0.0 0.0 0.00 0.00 0.00 90 1020.8
20190119054403 32 87 0.0 0.0 0.00 0.01 0.00 91 1020.9
20190119053852 32 248 0.0 0.0 0.00 0.01 0.00 91 1020.9
20190119053343 32 246 0.0 0.0 0.00 0.01 0.00 91 1020.8
20190119052832 32 248 0.0 0.0 0.00 0.01 0.00 91 1020.7
20190119052322 32 248 0.0 0.0 0.00 0.01 0.00 91 1020.7
20190119051812 32 248 0.0 0.0 0.00 0.01 0.00 91 1020.6
20190119051302 32 248 0.0 0.0 0.00 0.01 0.00 91 1020.5
20190119050751 32 248 0.0 0.0 0.00 0.01 0.00 91 1020.4
20190119050240 32 246 0.0 0.0 0.00 0.01 0.00 91 1020.4
20190119045739 32 246 0.0 0.0 0.00 0.01 0.00 91 1020.3
20190119045227 32 246 0.0 0.0 0.00 0.01 0.00 90 1020.3
20190119044730 32 246 0.0 0.0 0.00 0.01 0.00 90 1020.3
20190119044218 32 239 0.0 1.0 0.00 0.01 0.00 90 1020.2
20190119043708 32 225 0.0 1.0 0.00 0.01 0.00 90 1020.1
20190119043158 32 263 0.0 0.0 0.00 0.01 0.00 90 1019.9
20190119042648 32 262 0.0 0.0 0.00 0.01 0.00 90 1019.8